Regional Weather Roundup
Issued by NWS Upton, NY

Current Version | Previous Version | Graphics & Text | Print | Product List | Glossary Off
Versions: 1 2 3 4 5 6 7 8 9 10 11 12 13 14 15 16 17 18 19 20 21 22 23 24 25 26 27 28 29 30 31 32 33 34 35 36 37 38 39 40 41 42 43 44 45 46 47 48 49 50

000
ASUS41 KOKX 210505
RWROKX

REGIONAL WEATHER ROUNDUP
NATIONAL WEATHER SERVICE NEW YORK NY
1200 AM EST SUN DEC 21 2014

NOTE: "FAIR" INDICATES FEW OR NO CLOUDS BELOW 12,000 FEET WITH NO
SIGNIFICANT WEATHER AND/OR OBSTRUCTIONS TO VISIBILITY.

NYZ071-072-176-178-NJZ106-104-210600-
NEW YORK CITY METRO AREA


CITY           SKY/WX    TMP DP  RH WIND       PRES   REMARKS
CENTRAL PARK   CLOUDY    32  21  64 VRB3      30.30F
LAGUARDIA APRT CLOUDY    32  23  69 N5        30.29F WCI  27
KENNEDY INTL   CLOUDY    34  21  59 CALM      30.30S
NEWARK/LIBERTY CLOUDY    32  22  66 NW6       30.29S WCI  26
BRNX BOT. GARD   N/A    N/A N/A N/A NW2       30.29F
TETERBORO      CLOUDY    32  21  64 N3        30.29S
$$

NYZ177-179-078>081-210600-
LONG ISLAND NEW YORK

CITY           SKY/WX    TMP DP  RH WIND       PRES   REMARKS
FARMINGDALE    CLOUDY    33  23  66 NW3       30.28F
ISLIP          CLOUDY    33  25  72 CALM      30.25F
SHIRLEY        CLOUDY    33  27  78 W5        30.28S WCI  29
WESTHAMPTON    CLOUDY    33  28  81 CALM      30.28F
MONTAUK POINT    N/A     38  33  82 NE6       30.26F WCI  33
$$

NYZ052-065-067-210600-
HUDSON VALLEY

CITY           SKY/WX    TMP DP  RH WIND       PRES   REMARKS
WHITE PLAINS   CLOUDY    30  24  78 NW5       30.25F WCI  25
NEWBURGH       NOT AVBL
MONTGOMERY     CLOUDY    28  23  81 CALM      30.27R
POUGHKEEPSIE   CLOUDY    30  21  69 CALM      30.29R
ALBANY         CLOUDY    28  19  69 N6        30.30F WCI  22
$$

NJZ001-105-106-008-010-013-015-019>022-104-210600-
NEW JERSEY

CITY           SKY/WX    TMP DP  RH WIND       PRES   REMARKS
NEWARK/LIBERTY CLOUDY    32  22  66 NW6       30.29S WCI  26
TETERBORO      CLOUDY    32  21  64 N3        30.29S
CALDWELL       CLOUDY    31  22  69 CALM      30.29S
MORRISTOWN     CLOUDY    32  23  69 CALM      30.29S
SOMERVILLE     CLOUDY    32  22  66 CALM      30.28S
SUSSEX         CLOUDY    29  22  75 CALM      30.27S
ANDOVER          N/A     29  21  72 NW3       30.27S
TRENTON        CLOUDY    31  22  69 CALM      30.29S
MILLVILLE      CLOUDY    29  25  85 CALM      30.30F
ATLANTIC CITY  CLOUDY    29  23  78 NW5       30.30S WCI  24
WRIGHTSTOWN    CLOUDY    29  23  79 W3        30.27S
TOMS RIVER     CLEAR     23  19  86 CALM      30.29F
BELMAR         CLOUDY    30  19  64 W5        30.28S WCI  25
$$

PAZ047>061-062-071-210600-
EASTERN PENNSYLVANIA

CITY           SKY/WX    TMP DP  RH WIND       PRES   REMARKS
PHILADELPHIA   CLOUDY    34  23  64 S3        30.31F
ALLENTOWN      CLOUDY    31  21  66 CALM      30.29S
SCRANTON       CLOUDY    30  20  66 NW3       30.25F
$$

CTZ002-004>006-009-010-012-RIZ004-006-007-MAZ004-011-015-210600-
SOUTHERN NEW ENGLAND
 IN CT

CITY           SKY/WX    TMP DP  RH WIND       PRES   REMARKS
BRADLEY INTL   CLOUDY    32  27  81 N6        30.27F WCI  26
HARTFORD       CLOUDY    33  27  78 VRB6      30.28F WCI  28
DANBURY        CLOUDY    29  22  75 SW3       30.27S
WTRBRY/OXFORD  CLOUDY    30  19  64 NE3       30.24F
BRIDGEPORT     CLOUDY    33  26  75 N3        30.28S
MERIDEN        CLOUDY    32  24  72 N5        30.27F WCI  27
NEW HAVEN      CLOUDY    35  23  61 N3        30.27F
CHESTER        CLOUDY    32  28  86 N3        30.25F
GROTON         CLOUDY    33  29  85 N7        30.25F WCI  27
WILLIMANTIC    CLOUDY    33  27  78 N5        30.27S WCI  29

 IN RI

CITY           SKY/WX    TMP DP  RH WIND       PRES   REMARKS
PROVIDENCE     LGTSLEET  32  31  96 N6        30.28S FOG     WCI  26
BLOCK ISLAND   CLOUDY    37  32  81 NE10G17   30.23F WCI  30
WESTERLY       CLOUDY    34  29  82 N5        30.26F WCI  30

 IN MA

CITY           SKY/WX    TMP DP  RH WIND       PRES   REMARKS
BOSTON         CLOUDY    35  28  75 NE13      30.29F WCI  26
WORCESTER      CLOUDY    28  25  88 NE7       30.24F WCI  21
WESTFIELD      CLOUDY    32  25  75 N6        30.28F WCI  26
PROVINCETOWN   CLOUDY    37  32  81 NE18G25   30.26F WCI  27
NANTUCKET      CLOUDY    40  36  86 NE6       30.24S
$$

ANZ330-335-338-340-345-350-353-355-210600-
COASTAL MARINE OBSERVATIONS


STATION/POSITION TIME  SKY/WX   TEMP    WIND        PRES    VSBY  WAVE
                                AIR SEA DIR/SP/G                  HT/PER
                 (UTC)          (F)     (DEG/KT/KT) (MB)    (MI)  (FT/S)
NY HARB ENTRANCE 0500            35 45  200/  2/  4 1025.9          1
4S FIRE IS       0500               45                N/A           1/11
20S FIRE ISLAND  0400            36 49              1026.0          1/11
23SW MTP         0500                                 N/A           3/ 5
HUDSON CANYON    0500            39 54  330/  8/ 12 1024.2          2/ 3
EXECUTION ROCKS  0500            33 41  360/  4/  6   N/A
WESTERN LI SOUND 0500            33     320/  4/  6   N/A           0
CENTRAL LI SOUND 0400            34 44  350/  6/  8   N/A           0
EASTERN LI SOUND NOT AVBL
ROBBINS REEF     0500            32        CALM     1024.4
$$


>>>>>>>>>>>>>>>>>>>>>>>>>>>> KEY <<<<<<<<<<<<<<<<<<<<<<<<<<<
>                                                          <
>     SKY/WX - SKY CONDITION/PRESENT WEATHER               <
>     TMP    - TEMPERATURE IN FAHRENHEIT                   <
>     DP     - DEWPOINT IN FAHRENHEIT                      <
>     RH     - RELATIVE HUMIDITY IN PERCENT                <
>     WIND   - DIRECTION AND SPEED IN MPH                  <
>     PRES   - MEAN SEA LEVEL PRESSURE IN INCHES OF HG     <
>     WCI    - WIND CHILL INDEX                            <
>     VSB    - VISIBILITY IN MILES                         <
>     HX     - HEAT INDEX                                  <
>     TC     - TEMPERATURE IN CELSIUS                      <
>     VRB    - VARIABLE WIND DIRECTION                     <
>                                                          <
>>>>>>>>>>>>>>>>>>>>>>>>>>>> KEY <<<<<<<<<<<<<<<<<<<<<<<<<<<





USA.gov is the U.S. government's official web portal to all federal, state and local government web resources and services.